sat.trackr.live / text

‹ back to catalog

STARLINK-35837

NORAD 66840 · 2025-280V

PAYLOAD ACTIVE UNKNOWN

§ Identity

Operator
Country
US
Launch date
2025-12-02
Launch site
AFWTR
Launch vehicle
Mass (kg)
RCS (m²)

Purposes: comms

External: N2YO · Heavens-Above · Gunter

§ Orbital elements

Epoch: 2026-09-20T05:28:30.770688Z

Period
96.11 min
Inclination
70.0003°
Eccentricity
0.0003154
Mean motion
14.98334160 rev/d
Perigee alt
569.9 km
Apogee alt
574.2 km
Semi-major
6,950.2 km
B*
6.2167e-4
RAAN
204.0448°
Arg perigee
263.7036°
Mean anomaly
96.3763°
Rev number
4,521

§ Raw data

STARLINK-358371 66840U 25280V   26263.22813392  .00007333  00000+0  62167-3 0  99902 66840  70.0003 204.0448 0003154 263.7036  96.3763 14.98334160 45213

JSON: /api/v1/satellites/66840 · /tle

For live sub-satellite position, see the globe view (requires WebGL).

§ Visibility from observer

Set your observer location to see the next 7 days of passes ≥ 10°. The values pass through the URL so the page stays shareable.

No JS? Fill the form by hand. The geolocation button needs JavaScript.